Regional Weather Roundup
Issued by NWS Charleston, SC

Current Version | Previous Version | Graphics & Text | Print | Product List | Glossary On
Versions: 1 2 3 4 5 6 7 8 9 10 11 12 13 14 15 16 17 18 19 20 21 22 23 24 25 26 27 28 29 30 31 32 33 34 35 36 37 38 39 40 41 42 43 44 45 46 47 48 49 50
000 ASUS42 KCHS 282327 RWRCHS REGIONAL WEATHER ROUNDUP NATIONAL WEATHER SERVICE CHARLESTON SC 700 PM EDT FRI APR 28 2017 NOTE: "FAIR" INDICATES FEW OR NO CLOUDS BELOW 12,000 FEET WITH NO SIGNIFICANT WEATHER AND/OR OBSTRUCTIONS TO VISIBILITY. NOT ALL STATIONS ARE QUALITY CONTROLLED. USE DATA WITH CAUTION... ESPECIALLY DEWPOINT OBSERVATIONS. SCZ027-030-031-034>040-042>050-290000- ...SOUTHEAST SOUTH CAROLINA... CITY SKY/WX TMP DP RH WIND PRES REMARKS N CHARLESTON MOSUNNY 80 72 76 S12 30.10R WATERFRONT PRK N/A 78 75 90 S10 30.08R JOHNS ISLAND MOCLDY 79 75 89 S8 30.11R PINOPOLIS N/A 82 73 74 S6 30.02R MONCKS CORNER FAIR 79 70 73 S9 30.09S SUMMERVILLE FAIR 81 72 74 SE7 30.09S BEAUFORT MCAS SUNNY 79 75 87 S10 30.08R BEAUFORT ARPT FAIR 77 72 83 S6 30.09R HILTON HEAD IS MOSUNNY 77 75 94 S10 30.10R WALTERBORO CLEAR 81 72 74 SE9 30.08S ALLENDALE FAIR 86 73 66 SE12 30.04S HX 93 ...SOUTHERN MIDLANDS AND PEE DEE... CITY SKY/WX TMP DP RH WIND PRES REMARKS GEORGETOWN CLOUDY 79 73 83 S7 30.12S KINGSTREE FAIR 81 70 69 SE9 30.08R ORANGEBURG SUNNY 86 71 60 S12 30.05S HX 91 BARNWELL FAIR 88 73 62 SE10 30.05R HX 96 AIKEN FAIR 84 68 58 S7 30.08S MANNING FAIR 81 72 74 S13G26 30.07S COLUMBIA MOSUNNY 89 67 47 S9 30.03S HX 92 SUMTER SUNNY 87 68 54 S9 30.03S HX 90 FLORENCE SUNNY 86 72 62 S9 30.06R HX 92 MYRTLE BEACH PTSUNNY 77 75 94 S14 30.12 N MYRTLE BEACH PTSUNNY 76 74 93 S13 30.11S $$ GAZ063-065-086>088-099>101-113>116-118-119-134>141-150-290000- ...SOUTHEAST GEORGIA... CITY SKY/WX TMP DP RH WIND PRES REMARKS SAVANNAH ARPT SUNNY 84 68 58 S13 30.07R HUNTER AAF SUNNY 81 76 84 SE8 30.05R FORT STEWART SUNNY 86 71 60 SE8 30.03R HX 91 STATESBORO SUNNY 87 71 57 SE9 30.05R HX 93 SYLVANIA CLEAR N/A N/A N/A SE5 30.06R CLAXTON FAIR 87 75 68 E8 30.04S HX 96 ...CSRA...CENTRAL AND FAR SOUTHEAST GEORGIA... CITY SKY/WX TMP DP RH WIND PRES REMARKS THOMSON SUNNY 84 67 57 W3 30.10R AUGUSTA-BUSH SUNNY 89 68 49 S8 30.02R HX 93 AUGUSTA-DANIEL SUNNY 89 65 44 S10 30.04S HX 91 SWAINSBORO FAIR 90 66 45 CALM 30.05R HX 92 VIDALIA MOSUNNY 90 68 48 S3 30.04S HX 93 EASTMAN FAIR 89 49 25 CALM 30.06S HAZLEHURST FAIR 89 68 48 S3 30.02S HX 93 ALMA SUNNY 90 69 50 S5 30.03R HX 94 WAYCROSS MOSUNNY 91 73 54 S3 30.03S HX 99 JESUP FAIR 86 66 51 S8 30.06R BAXLEY FAIR 90 72 55 CALM 30.03S HX 96 BRUNSWICK SUNNY 81 73 78 SE14 30.08S SAINT SIMONS SUNNY 79 72 79 SE14G21 30.07R $$ SCZ027-028-034-036>038-045-046-048>050-GAZ119-141-290000- ...LAKE AND SUPPLEMENTAL COASTAL OBSERVATIONS... STATION/POSITION TIME TEMP WIND PRES WAVE SWELL AIR SEA DIR/SP/G HT/PER HT/PER/DIR (UTC) (F) (DEG/KT/KT) (MB) (FT/S) (FT/S/D) WINYAH BAY 2245 79 190/ 10 1019.0S LAKE MURRAY 2250 84 180/ 5/ 6 1016.6R ACE BASIN NERRS 2245 78 170/ 2 1019.0S FORT PULASKI 2300 78 76 170/ 7/ 10 1019.0 SAPELO ISLAND 2230 82 160/ 12 1018.0S $$ ANZ835-935-AMZ111-154-330-350-352-354-370-450-454-472-290000- ...C-MAN AND BUOY OBSERVATIONS... STATION/POSITION TIME TEMP WIND PRES WAVE SWELL AIR SEA DIR/SP/G HT/PER HT/PER/DIR (UTC) (F) (DEG/KT/KT) (MB) (FT/S) (FT/S/D) BUOY 41004 2300 76 75 170/ 10/ 12 1019.5 BUOY 41008 2250 76 74 160/ 14/ 17 1018.1F 3/ 5 2/100/ 7 FOLLY BEACH CMAN 2300 77 160/ 5/ 6 1020.1R CAPERS NEARSHORE 2308 75 76 160/ 6/ 10 1019.5R FRIPP NEARSHORE 2308 76 74 170/ 12/ 14 1018.6F STATION/POSITION TIME TEMP WIND PRES WAVE SWELL AIR SEA DIR/SP/G HT/PER HT/PER/DIR (UTC) (F) (DEG/KT/KT) (MB) (FT/S) (FT/S/D) 5E ST. MARYS GA 2300 75 N/A 3/ 3 FRYING PAN BUOY 2310 75 74 190/ 8/ 8 1020.4 BUOY 41025 2250 78 76 210/ 16/ 17 1020.2R 4/ 8 3/120/ 8 CAPE LOOKOUT NC 2300 75 200/ 10/ 12 1019.9R BUOY 41002 2250 75 76 170/ 8/ 8 1023.0R 4/ 5 3/140/ 5 BUOY 41010 2310 78 79 140/ 10/ 14 1020.1 ST AUGUSTINE FL 2300 76 80 150/ 16/ 20 1019.1R $$

USA.gov is the U.S. government's official web portal to all federal, state and local government web resources and services.